Skip Page Navigation
NASA JPL Caltech
NASA Logo - Jet Propulsion Laboratory + View the NASA Portal
+ Near-Earth Object (NEO) Program
Search JPL
JPL Home Earth Solar System Stars & Galaxies Technology
JPL Solar System Dynamics
BODIES ORBITS EPHEMERIDES TOOLS PHYSICAL DATA DISCOVERY FAQ SITE MAP
JPL Small-Body Database Browser
Search: [ help ]  
14499 Satotoshio (1995 VR1)
Classification: Main-belt Asteroid          SPK-ID: 2014499
Ephemeris | Orbit Diagram | Orbital Elements | Physical Parameters | Discovery Circumstances ]

[ show orbit diagram ]
Orbital Elements at Epoch 2457000.5 (2014-Dec-09.0) TDB
Reference: JPL 6 (heliocentric ecliptic J2000)
 Element Value Uncertainty (1-sigma)   Units 
e .1834575205079796 5.7573e-08  
a 2.1616244827193 1.3107e-08 AU
q 1.765058214850273 1.2161e-07 AU
i 4.988633377576833 6.1673e-06 deg
node 107.2419291582082 6.7831e-05 deg
peri 257.8811480093839 7.1999e-05 deg
M 36.20188843118365 2.9698e-05 deg
tp 2456883.765956922524
(2014-Aug-14.26595692)
9.5021e-05 JED
period 1160.830479541846
3.18
1.0558e-05
2.891e-08
d
yr
n .3101228011708342 2.8207e-09 deg/d
Q 2.558190750588327 1.5512e-08 AU
  Orbit Determination Parameters
   # obs. used (total)      718  
   data-arc span      21805 days (59.70 yr)  
   first obs. used      1954-12-22  
   last obs. used      2014-09-03  
   planetary ephem.      DE431  
   SB-pert. ephem.      SB431-BIG16  
   condition code      0  
   fit RMS      .51384  
   data source      ORB  
   producer      Otto Matic  
   solution date      2014-Sep-12 14:03:26  

Additional Information
 Earth MOID = .771287 AU 
 T_jup = 3.670 
[ show covariance matrix ]

Ephemeris | Orbit Diagram | Orbital Elements | Physical Parameters | Discovery Circumstances ]

Physical Parameter Table
Parameter Symbol Value Units Sigma Reference Notes
absolute magnitude H 14.8 mag n/a MPO266034  

14499 Satotoshio           Discovered 1995 Nov. 15 by K. Endate and K. Watanabe at Kitami.
Toshio Sato (b. 1936) is an amateur astronomer and well known as an expert on the modern history of Japanese astronomy.
NOTE: some special characters may not display properly (any characters within {} are an attempt to place the proper accent above a character)
Reference: 20050721/MPCPages.arcLast Updated: 2005-07-21

Alternate Designations
 1995 VR1 = 1989 YD2 
Ephemeris | Orbit Diagram | Orbital Elements | Physical Parameters | Discovery Circumstances ]
ABOUT SSD CREDITS/AWARDS PRIVACY/COPYRIGHT GLOSSARY LINKS
FirstGov 2014-Sep-17 07:34 UT
(server date/time)  
NASA Home Page
Site Manager:   Donald K. Yeomans
Webmaster  Alan B. Chamberlin